Погода в Алексеевке

Погода в Алексеевке : погода сейчас, прогноз погоды и архив. Всё, что Вы хотите узнать о погоде в Алексеевке!

Поиск расширенной информации на нашем сайте:

Полезная информация: Уникальное предложение парфюм оптом санкт петербург spb.parfumeram.ru.

Другие новости

Новости СМИ2

Главная страница сайта

Новости сайта

02.10.2013

Напоминаем, что на нашем новом сайте вы можете получить высокодетализированные прогнозы погоды по пунктам России, СНГ и мира (включающие важные для авиации метеовеличины, такие как направление и скорость ветра, видимость, явления погоды, количество и форма облачности, нижняя и верхняя граница облачности), а также ознакомиться с разнообразными материалами по авиационной метеорологии и подборкой полезных ссылок на эту тему.

Сайт Метеоцентр.Азия посвящён разработке технологий оптимизации авиаметеорологического обслуживания, включая проектирование и перспективное создание нескольких автоматизированных авиаметеорологических систем:
- система выпуска высокодетальных прогностических карт явлений погоды для нижнего воздушного пространства по России и ближнему зарубежью;
- система верификации прогнозов TAF (выпускаемых синоптиками официальных АМСГ РФ и ближнего зарубежья) и AUTOTAF (выпускаемых сайтом Метеоцентр.Азия) - выявление ошибок, онлайн-сопоставление с фактической погодой METAR, автоматическое внесение коррективов в прогнозы при резком отклонении фактической погоды от прогноза, подсчёт оправдываемости прогнозов по элементам и в целом;
- система обработки, анализа и отображения авиаметеорологической информации для применения провайдерами метеорологической информации.

Рекомендуем: Skf подшипник 6308 www.vekko-podshipnik.ru.

Погода в Алексеевке - сегодня

Время (UTC), дата Ветер
(°,м/с) 
Видим.   Явления Облачность Т
(°С)
Тd
(°С)
f(%) Тe
(°С)
Pmin
(гПа)
dP
(гПа)
Po
(мм)
O2
(г/м3)
Тmin Tmax R s Состояние
почвы
03 20.04.17 тихо ()   20000 м    3/0 средняя 
[Ac lent]
+9.8 +3.4 64 +10  1023.6  0.4  733  285           
06 20.04.17 тихо ()   20000 м    ясно 
+16.1 +6.6 53 +16  1022.4  -0.1  733  278  +1.5         
09 20.04.17 120 (ЮВ) 20000 м    8/8 1000 м 
[Cu Sc]
+19.6 +3.8 35 +21  1020.9  -1  732  275           
12 20.04.17 120 (ЮВ) 20000 м    6/6 1000 м 
[Cu Sc]
+18.4 +4 38 +20  1019.9  -1.1  732  276           
15 20.04.17 120 (ЮВ) 20000 м    ясно 
+14.1 +5 54 +15  1020  -0.5  731  279    +20.3       
18 20.04.17 130 (ЮВ) н/о    ясно 
+11.5 +3.2 57 +13  1020.6  0.1  731  282    +20.3       
21 20.04.17 120 (ЮВ) н/о    ясно 
+8.3 +3.5 72 +8  1019.2  -1.8  730  285           
00 21.04.17 тихо ()   20000 м    ясно 
+6.3 +2.2 75 +6  1018.2  -1.3  729  287           
03 21.04.17 тихо ()   20000 м    ясно 
+10.7 +1.6 53 +11  1016.6  -0.8  728  282           
06 21.04.17 150 (ЮВ) 20000 м    3/0 верхняя 
[Ci fib]
+16.7 +3.2 40 +16  1012.9  -2.6  726  275  +4.5         
09 21.04.17 160 (Ю) 20000 м    8/0 верхняя 
[Ci]
+19.5 +2.2 32 +19  1010.1  -2.3  725  272           
12 21.04.17 150 (ЮВ) 20000 м    10/0 средняя, верхняя 
[Ac lent|Ci sp]
+19.8 +1.1 29 +20  1007.5  -2.5  723  271           
15 21.04.17 170 (Ю) 20000 м    10/10 600 м кучево-дожд. 
[Cb cap]
+16.3 +5.2 48 +16  1006.5  -1.4  722  274    +20.6       
18 21.04.17 тихо ()   н/о  {ливн. осадки}  10/10 600 м 
[Sc]
+12.3 +10 86 +14  1005.2  -1.8  720  276    +20.6       
21 21.04.17 170 (Ю) н/о    9/9 600 м 
[Sc]
+9.3 +7.4 88 +10  1003.8  -1.8  719  279           
00 22.04.17 тихо ()   20000 м    10/10 600 м 
[Sc]
+9.9 +8.1 89 +10  1003.3  -0.4  719  278           
03 22.04.17 170 (Ю) 20000 м    10/10 1000 м 
[Sc]
+11.1 +8.1 82 +11  1004.8  1.6  720  277           
06 22.04.17 310 (СЗ) 20000 м  {ливн. осадки}  9/9 1000 м 
[Sc]
+7.3 +3.9 79 +6  1010  4.3  723  283  +9    0.0     
09 22.04.17 300 (СЗ) 20000 м    ясно 
+10.9 -1 44 +9  1012.1  2.6  725  281           
12 22.04.17 320 (СЗ) 20000 м    ясно 
+9.9 -3.7 38 +9  1015.1  2.7  727  283           
15 22.04.17 330 (СЗ) 20000 м    ясно 
+6.5 -2.1 54 +6  1018.6  2.8  729  287    +12.5  0.0     
18 22.04.17 330 (СЗ) н/о    ясно 
+1.9 -2.4 73 +3  1021.2  1.7  731  293    +12.5  0.0     
21 22.04.17 340 (С) н/о    ясно 600 м 
+3.3 -4.5 57 +4  1020.5  731  291           
00 23.04.17 тихо ()   20000 м    ясно 
-0.9 -2.4 90 -1  1021.8  -0.4  731  296           
03 23.04.17 070 (В) 20000 м    10/0 средняя, верхняя 
[Ac As|Ci sp]
+4.5 -0.8 68 +5  1019.1  -1.7  729  289           
Время (UTC), дата Ветер
(°,м/с) 
Видим.   Явления Облачность Т
(°С)
Тd
(°С)
f(%) Тe
(°С)
Pmin
(гПа)
dP
(гПа)
Po
(мм)
O2
(г/м3)
Тmin Tmax R s Состояние
почвы

Для получения пояснительной информации подведите курсор к названию столбца.

ПОГОДА в Алексеевке - архив

Всё, что Вы хотите узнать о погоде в Алексеевке - удобно и подробно!

Выберите нужную дату (начиная с 1 января 2015* года) и нажмите кнопку "Найти".
Будут отображены архивные сводки погоды по пункту Алексеевка, начиная с указанной даты.


Отображать данные в формате CSV (для использования в таблицах Excel)


Внимание! Наш архив погоды предназначен исключительно для личного некоммерческого использования в познавательных целях. Если Вам необходимы официальные справки о состоянии погоды (для производственных, юридических, коммерческих и т.п. целей), обращайтесь в органы Росгидромета.

*Примечание: данная дата относится к архиву по метеостанциям СССР (Россия, СНГ, Балтия).
Архив по метеостанциям Зарубежной Европы и Азии (кроме Китая) хранится 10 дней, по другим регионам земного шара (Китай, Африка, Америка, Австралия, Океания) - 1 день.

Алексеевка - район местоположения метеостанции


Название, широта, долгота, высота метеостанции:
Алексеевка 52°ш. 70.9°д. 384 м над ур. моря [Казахстан]

Дополнительная информация

В oтличие oт бoльшинства пoгoдных сайтoв мы публикуем пoдрoбную метеoинфoрмацию в детальнoм прoфессиoнальнoм фoрмате.

Характеристики температуры и влажнoсти вoздуха измеряются на высoте 2 м в тени вдали oт зданий и деревьев.
Скoрoсть ветра измеряется на высoте 10 м (на урoвне рoста челoвека скoрoсть ветра ниже в 1.5-2 раза). Если метеoстанция нахoдится в гoрoде или в лесу, тo скoрoсть ветра занижена на 2-4 м/с пo сравнению с oткрытым местoм. Скoрoсть ветра над акватoриями крупных рек и oзёр, а также на вершинах хoлмoв на 2-5 м/с выше, чем в oбычных услoвиях.
Атмoсфернoе давление в разных тoчках местнoсти мoжет значительнo oтличаться oт давления на метеoстанции, в зависимoсти oт услoвий рельефа (при пoдъёме на 10 м давление пoнижается примернo на 1 мм рт.ст.).